When you browse on this site, cookies collect data to enhance your experience and personalize the content and advertising you see.
Visit our Privacy Policy to learn more. By continuing to use the site, you agree to this use of cookies and data.
EN

Hourly Weather Donskoy

Today, 25 September, Friday

Time Temperature Precipitation Wind Pressure Humidity
00:00 +17°C° 0 mm 3 mps 761 mmHg 41%
01:00 +16°C° 0 mm 3 mps 761 mmHg 45%
02:00 +16°C° 0 mm 3 mps 761 mmHg 48%
03:00 +14°C° 0 mm 3 mps 761 mmHg 52%
04:00 +14°C° 0 mm 3 mps 761 mmHg 54%
05:00 +13°C° 0 mm 3 mps 761 mmHg 55%
06:00 +13°C° 0 mm 4 mps 761 mmHg 56%
07:00 +15°C° 0 mm 4 mps 761 mmHg 51%
08:00 +19°C° 0 mm 5 mps 761 mmHg 45%
09:00 +21°C° 0 mm 5 mps 761 mmHg 41%
10:00 +23°C° 0 mm 5 mps 761 mmHg 37%
11:00 +26°C° 0 mm 6 mps 760 mmHg 34%
12:00 +28°C° 0 mm 6 mps 760 mmHg 31%
13:00 +28°C° 0 mm 6 mps 760 mmHg 29%
14:00 +29°C° 0 mm 6 mps 759 mmHg 27%
15:00 +30°C° 0 mm 6 mps 759 mmHg 25%
16:00 +28°C° 0 mm 5 mps 759 mmHg 27%
17:00 +27°C° 0 mm 4 mps 759 mmHg 29%
18:00 +25°C° 0 mm 3 mps 759 mmHg 32%
19:00 +23°C° 0 mm 4 mps 759 mmHg 34%
20:00 +22°C° 0 mm 4 mps 759 mmHg 36%
21:00 +21°C° 0 mm 4 mps 759 mmHg 38%
22:00 +21°C° 0 mm 5 mps 759 mmHg 37%
23:00 +21°C° 0 mm 5 mps 758 mmHg 37%

Tomorrow, 26 September, Saturday

Time Temperature Precipitation Wind Pressure Humidity
00:00 +20°C° 0 mm 5 mps 758 mmHg 36%
01:00 +20°C° 0 mm 5 mps 758 mmHg 37%
02:00 +19°C° 0 mm 5 mps 758 mmHg 38%
03:00 +17°C° 0 mm 5 mps 758 mmHg 39%
04:00 +17°C° 0 mm 5 mps 758 mmHg 40%
05:00 +16°C° 0 mm 5 mps 758 mmHg 41%
06:00 +15°C° 0 mm 5 mps 758 mmHg 41%
07:00 +17°C° 0 mm 6 mps 758 mmHg 36%
08:00 +20°C° 0 mm 6 mps 758 mmHg 31%
09:00 +22°C° 0 mm 7 mps 758 mmHg 26%
10:00 +26°C° 0 mm 7 mps 758 mmHg 22%
11:00 +28°C° 0 mm 8 mps 758 mmHg 19%
12:00 +31°C° 0 mm 8 mps 758 mmHg 15%
13:00 +32°C° 0 mm 9 mps 758 mmHg 16%
14:00 +32°C° 0 mm 9 mps 758 mmHg 16%
15:00 +32°C° 0 mm 9 mps 757 mmHg 16%
16:00 +31°C° 0 mm 8 mps 757 mmHg 20%
17:00 +28°C° 0 mm 7 mps 757 mmHg 23%
18:00 +27°C° 0 mm 7 mps 757 mmHg 26%
19:00 +26°C° 0 mm 7 mps 758 mmHg 28%
20:00 +24°C° 0 mm 7 mps 759 mmHg 31%
21:00 +22°C° 0 mm 8 mps 759 mmHg 33%
22:00 +21°C° 0 mm 7 mps 759 mmHg 36%
23:00 +20°C° 0 mm 7 mps 759 mmHg 39%

Day after tomorrow, 27 September, Sunday

Time Temperature Precipitation Wind Pressure Humidity
00:00 +18°C° 0 mm 7 mps 759 mmHg 41%
01:00 +18°C° 0 mm 7 mps 760 mmHg 43%
02:00 +17°C° 0 mm 7 mps 760 mmHg 45%
03:00 +16°C° 0 mm 7 mps 760 mmHg 47%
04:00 +16°C° 0 mm 7 mps 760 mmHg 49%
05:00 +15°C° 0 mm 7 mps 760 mmHg 50%
06:00 +15°C° 0 mm 7 mps 760 mmHg 52%
07:00 +16°C° 0 mm 7 mps 760 mmHg 48%
08:00 +18°C° 0 mm 8 mps 761 mmHg 44%
09:00 +21°C° 0 mm 8 mps 761 mmHg 41%
10:00 +23°C° 0 mm 8 mps 761 mmHg 36%
11:00 +26°C° 0 mm 9 mps 760 mmHg 31%
12:00 +28°C° 0 mm 9 mps 760 mmHg 26%
13:00 +28°C° 0 mm 9 mps 760 mmHg 26%
14:00 +29°C° 0 mm 9 mps 760 mmHg 27%
15:00 +29°C° 0 mm 9 mps 760 mmHg 27%
16:00 +28°C° 0 mm 9 mps 760 mmHg 29%
17:00 +27°C° 0 mm 8 mps 760 mmHg 31%
18:00 +26°C° 0 mm 7 mps 761 mmHg 33%
19:00 +24°C° 0 mm 7 mps 761 mmHg 35%
20:00 +23°C° 0 mm 7 mps 761 mmHg 37%
21:00 +22°C° 0 mm 7 mps 762 mmHg 39%
22:00 +21°C° 0.2 mm 7 mps 762 mmHg 44%
23:00 +20°C° 0.2 mm 7 mps 762 mmHg 48%

28 September, Monday

Time Temperature Precipitation Wind Pressure Humidity
00:00 +18°C° 0.2 mm 7 mps 762 mmHg 52%
01:00 +19°C° 0.2 mm 6 mps 762 mmHg 55%
02:00 +17°C° 0.2 mm 6 mps 762 mmHg 58%
03:00 +16°C° 0.2 mm 6 mps 763 mmHg 61%
04:00 +16°C° 0 mm 5 mps 763 mmHg 61%
05:00 +15°C° 0 mm 5 mps 763 mmHg 61%
06:00 +15°C° 0 mm 5 mps 764 mmHg 61%
07:00 +16°C° 0 mm 5 mps 764 mmHg 56%
08:00 +17°C° 0 mm 6 mps 764 mmHg 52%
09:00 +20°C° 0 mm 6 mps 764 mmHg 47%
10:00 +22°C° 0 mm 6 mps 764 mmHg 43%
11:00 +24°C° 0 mm 6 mps 763 mmHg 38%
12:00 +27°C° 0 mm 6 mps 763 mmHg 34%
13:00 +28°C° 0 mm 6 mps 763 mmHg 32%
14:00 +29°C° 0 mm 5 mps 763 mmHg 30%
15:00 +30°C° 0 mm 5 mps 763 mmHg 28%
16:00 +29°C° 0 mm 5 mps 763 mmHg 30%
17:00 +28°C° 0 mm 4 mps 763 mmHg 32%
18:00 +27°C° 0 mm 4 mps 762 mmHg 34%
19:00 +25°C° 0 mm 5 mps 763 mmHg 36%
20:00 +23°C° 0 mm 6 mps 763 mmHg 38%
21:00 +22°C° 0 mm 6 mps 763 mmHg 40%
22:00 +21°C° 0 mm 7 mps 763 mmHg 45%
23:00 +21°C° 0 mm 7 mps 763 mmHg 50%

29 September, Tuesday

Time Temperature Precipitation Wind Pressure Humidity
00:00 +20°C° 0 mm 7 mps 763 mmHg 54%
01:00 +18°C° 0 mm 7 mps 763 mmHg 56%
02:00 +17°C° 0 mm 7 mps 763 mmHg 59%
03:00 +17°C° 0 mm 7 mps 763 mmHg 61%
04:00 +16°C° 0 mm 7 mps 763 mmHg 61%
05:00 +16°C° 0 mm 7 mps 763 mmHg 62%
06:00 +16°C° 0 mm 7 mps 763 mmHg 63%
07:00 +16°C° 0 mm 8 mps 762 mmHg 59%
08:00 +17°C° 0 mm 8 mps 762 mmHg 54%
09:00 +18°C° 0 mm 8 mps 762 mmHg 50%
10:00 +20°C° 0 mm 8 mps 762 mmHg 45%
11:00 +22°C° 0 mm 8 mps 761 mmHg 41%
12:00 +23°C° 0 mm 8 mps 761 mmHg 36%
13:00 +24°C° 0 mm 8 mps 760 mmHg 33%
14:00 +26°C° 0 mm 8 mps 760 mmHg 31%
15:00 +27°C° 0 mm 8 mps 759 mmHg 28%
16:00 +27°C° 0 mm 7 mps 759 mmHg 29%
17:00 +26°C° 0 mm 7 mps 759 mmHg 29%
18:00 +26°C° 0 mm 6 mps 759 mmHg 30%
19:00 +24°C° 0 mm 7 mps 759 mmHg 31%
20:00 +23°C° 0 mm 8 mps 759 mmHg 33%
21:00 +22°C° 0 mm 9 mps 759 mmHg 34%
22:00 +21°C° 0 mm 9 mps 758 mmHg 38%
23:00 +19°C° 0 mm 9 mps 758 mmHg 42%

30 September, Wednesday

Time Temperature Precipitation Wind Pressure Humidity
00:00 +18°C° 0 mm 9 mps 758 mmHg 46%
01:00 +17°C° 0 mm 9 mps 758 mmHg 49%
02:00 +17°C° 0 mm 8 mps 758 mmHg 53%
03:00 +16°C° 0 mm 8 mps 757 mmHg 57%
04:00 +16°C° 0 mm 7 mps 757 mmHg 57%
05:00 +16°C° 0 mm 7 mps 757 mmHg 58%
06:00 +16°C° 0 mm 6 mps 758 mmHg 58%
07:00 +16°C° 0.2 mm 7 mps 757 mmHg 57%
08:00 +17°C° 0.2 mm 7 mps 757 mmHg 57%
09:00 +17°C° 0.2 mm 8 mps 757 mmHg 56%
10:00 +18°C° 0.2 mm 8 mps 757 mmHg 54%
11:00 +20°C° 0.2 mm 7 mps 757 mmHg 51%
12:00 +20°C° 0.2 mm 7 mps 757 mmHg 49%
13:00 +21°C° 0.4 mm 7 mps 757 mmHg 48%
14:00 +22°C° 0.4 mm 7 mps 757 mmHg 46%
15:00 +22°C° 0.4 mm 6 mps 757 mmHg 45%
16:00 +22°C° 0.1 mm 7 mps 757 mmHg 44%
17:00 +22°C° 0.1 mm 7 mps 757 mmHg 42%
18:00 +22°C° 0.1 mm 7 mps 757 mmHg 41%
19:00 +21°C° 0.1 mm 7 mps 757 mmHg 41%
20:00 +21°C° 0.1 mm 7 mps 757 mmHg 40%
21:00 +20°C° 0.1 mm 8 mps 757 mmHg 40%
22:00 +18°C° 0 mm 7 mps 757 mmHg 43%
23:00 +17°C° 0 mm 7 mps 757 mmHg 47%
Show more